PST,Max TemperatureF,Mean TemperatureF,Min TemperatureF,Max Dew PointF,MeanDew PointF,Min DewpointF,Max Humidity, Mean Humidity, Min Humidity, Max Sea Level PressureIn, Mean Sea Level PressureIn, Min Sea Level PressureIn, Max VisibilityMiles, Mean VisibilityMiles, Min VisibilityMiles, Max Wind SpeedMPH, Mean Wind SpeedMPH, Max Gust SpeedMPH,PrecipitationIn, CloudCover, Events, WindDirDegrees
2013-1-1,,,,,,,,,,,,,,,,,,,,,,
2013-1-2,61,57,53,41,36,24,55,45,24,30.12,30.09,30.06,10,10,10,14,8,,0.00,0,,360
2013-1-3,63,57,51,53,48,36,93,74,38,30.13,30.11,30.09,10,10,10,13,4,,0.00,1,,124
2013-1-4,60,53,46,50,46,41,93,69,51,30.27,30.23,30.20,10,10,10,12,5,,0.00,0,,121
2013-1-5,,,,,,,,,,,,,,,,,,,0.00,,,-1
2013-1-6,53,53,53,52,51,50,94,91,88,30.21,30.21,30.21,7,6,6,10,8,,0.00,8,Rain,250
2013-1-7,59,56,53,48,44,39,80,63,48,30.11,30.07,30.04,10,10,10,25,19,30,0.00,2,,325
2013-1-8,63,56,50,54,52,48,96,82,65,30.11,30.09,30.07,10,10,10,9,5,,0.00,1,,221
2013-1-9,57,55,53,54,51,48,100,87,77,30.15,30.10,30.06,10,10,10,10,7,,0.00,6,,241
2013-1-10,55,52,50,40,38,35,63,56,49,30.05,30.03,30.01,10,10,10,36,29,46,0.00,4,,295
2013-1-11,55,52,48,36,32,29,54,46,41,30.22,30.17,30.12,10,10,10,21,17,25,0.00,2,,314
2013-1-12,,,,,,,,,,,,,,,,,,,,,,
2013-1-13,55,54,54,37,36,36,51,49,47,30.13,30.12,30.11,10,10,10,7,5,,0.00,3,,50
2013-1-14,54,50,46,30,25,18,50,37,24,30.34,30.29,30.19,10,10,10,16,13,,0.00,2,,30
2013-1-15,57,52,46,41,36,31,61,51,37,30.44,30.39,30.36,10,10,10,9,6,,0.00,1,,351
2013-1-16,61,54,48,48,42,29,96,62,30,30.36,30.27,30.19,10,10,10,8,3,,0.00,1,,20
2013-1-17,71,62,53,37,31,23,42,30,16,30.17,30.12,30.07,10,10,10,9,4,,0.00,2,,19
2013-1-18,70,64,57,42,31,22,57,30,16,30.14,30.11,30.07,10,10,10,9,6,,0.00,2,,60
2013-1-19,,,,,,,,,,,,,,,,,,,,,,
2013-1-20,70,64,57,40,34,20,51,36,15,30.09,30.06,30.04,10,10,10,10,5,,0.00,1,,224
2013-1-21,,,,,,,,,,,,,,,,,,,,,,
2013-1-22,71,61,51,42,29,16,49,30,16,30.09,30.05,30.03,10,10,10,20,10,,0.00,5,,136
2013-1-23,73,68,61,47,28,14,60,26,14,30.07,30.04,30.01,10,10,10,18,15,,0.00,7,Rain,152
2013-1-24,60,58,55,56,54,52,100,88,77,30.17,30.13,30.10,10,8,2,18,15,,0.03,8,Rain,116
2013-1-25,60,58,57,58,57,55,97,92,88,30.10,30.05,29.98,10,9,3,16,10,,0.07,8,Rain,106
2013-1-26,,,,,,,,,,,,,,,,,,,,,,
2013-1-27,55,55,55,45,44,43,67,66,63,30.03,30.03,30.02,10,10,10,23,22,30,0.00,3,,300
2013-1-28,55,52,50,43,41,38,71,61,51,30.17,30.14,30.11,10,10,10,25,22,32,0.00,3,,313
2013-1-29,57,54,51,47,45,43,80,71,64,30.25,30.21,30.18,10,10,10,10,9,,0.00,7,,292
2013-1-30,59,55,51,52,50,46,89,82,75,30.33,30.28,30.23,10,10,10,15,11,,0.00,2,,135
2013-1-31,60,56,51,54,51,47,96,81,69,30.23,30.18,30.13,10,10,10,9,5,,0.00,2,Fog,304